EN

Hourly Weather Altınbaşak

Today, 22 January, Friday

Time Temperature Precipitation Wind Pressure Humidity
00:00 +1°C° 0 mm 2 mps 740 mmHg 55%
01:00 +1°C° 0 mm 2 mps 740 mmHg 55%
02:00 +1°C° 0 mm 2 mps 740 mmHg 55%
03:00 +1°C° 0 mm 2 mps 740 mmHg 54%
04:00 +1°C° 0 mm 2 mps 740 mmHg 54%
05:00 +1°C° 0 mm 2 mps 740 mmHg 54%
06:00 +1°C° 0 mm 2 mps 740 mmHg 54%
07:00 +1°C° 0 mm 2 mps 740 mmHg 52%
08:00 +2°C° 0 mm 2 mps 740 mmHg 50%
09:00 +2°C° 0 mm 2 mps 740 mmHg 48%
10:00 +4°C° 0 mm 2 mps 740 mmHg 44%
11:00 +5°C° 0 mm 2 mps 740 mmHg 39%
12:00 +7°C° 0 mm 1 mps 740 mmHg 35%
13:00 +8°C° 0 mm 1 mps 740 mmHg 34%
14:00 +9°C° 0 mm 1 mps 739 mmHg 32%
15:00 +9°C° 0 mm 1 mps 738 mmHg 31%
16:00 +8°C° 0 mm 1 mps 738 mmHg 37%
17:00 +7°C° 0 mm 1 mps 738 mmHg 43%
18:00 +6°C° 0 mm 1 mps 738 mmHg 49%
19:00 +6°C° 0 mm 1 mps 738 mmHg 50%
20:00 +4°C° 0 mm 2 mps 738 mmHg 51%
21:00 +4°C° 0 mm 2 mps 738 mmHg 51%
22:00 +3°C° 0 mm 2 mps 738 mmHg 52%
23:00 +3°C° 0 mm 2 mps 738 mmHg 53%

Tomorrow, 23 January, Saturday

Time Temperature Precipitation Wind Pressure Humidity
00:00 +4°C° 0 mm 1 mps 738 mmHg 54%
01:00 +2°C° 0 mm 2 mps 738 mmHg 54%
02:00 +2°C° 0 mm 2 mps 737 mmHg 54%
03:00 +2°C° 0 mm 2 mps 737 mmHg 54%
04:00 +2°C° 0 mm 2 mps 737 mmHg 54%
05:00 +2°C° 0 mm 2 mps 737 mmHg 54%
06:00 +2°C° 0 mm 2 mps 737 mmHg 54%
07:00 +2°C° 0 mm 2 mps 737 mmHg 52%
08:00 +3°C° 0 mm 2 mps 737 mmHg 50%
09:00 +3°C° 0 mm 2 mps 737 mmHg 48%
10:00 +6°C° 0 mm 1 mps 737 mmHg 44%
11:00 +7°C° 0 mm 1 mps 737 mmHg 40%
12:00 +8°C° 0 mm 1 mps 737 mmHg 37%
13:00 +9°C° 0 mm 1 mps 737 mmHg 36%
14:00 +9°C° 0 mm 1 mps 736 mmHg 36%
15:00 +10°C° 0 mm 1 mps 736 mmHg 35%
16:00 +9°C° 0 mm 1 mps 736 mmHg 41%
17:00 +8°C° 0 mm 1 mps 735 mmHg 46%
18:00 +7°C° 0 mm 1 mps 735 mmHg 51%
19:00 +5°C° 0 mm 2 mps 736 mmHg 52%
20:00 +5°C° 0 mm 2 mps 736 mmHg 52%
21:00 +4°C° 0 mm 2 mps 736 mmHg 52%
22:00 +4°C° 0 mm 2 mps 736 mmHg 52%
23:00 +4°C° 0 mm 2 mps 736 mmHg 52%

Day after tomorrow, 24 January, Sunday

Time Temperature Precipitation Wind Pressure Humidity
00:00 +3°C° 0 mm 2 mps 736 mmHg 52%
01:00 +3°C° 0 mm 2 mps 736 mmHg 52%
02:00 +3°C° 0 mm 2 mps 736 mmHg 52%
03:00 +3°C° 0 mm 2 mps 736 mmHg 52%
04:00 +3°C° 0 mm 2 mps 735 mmHg 52%
05:00 +3°C° 0 mm 2 mps 735 mmHg 52%
06:00 +3°C° 0 mm 2 mps 735 mmHg 51%
07:00 +3°C° 0 mm 2 mps 736 mmHg 50%
08:00 +4°C° 0 mm 2 mps 736 mmHg 50%
09:00 +4°C° 0 mm 2 mps 736 mmHg 49%
10:00 +6°C° 0 mm 2 mps 736 mmHg 44%
11:00 +7°C° 0 mm 2 mps 736 mmHg 39%
12:00 +10°C° 0 mm 1 mps 736 mmHg 35%
13:00 +9°C° 0 mm 2 mps 736 mmHg 34%
14:00 +10°C° 0 mm 2 mps 735 mmHg 34%
15:00 +12°C° 0 mm 2 mps 735 mmHg 33%
16:00 +10°C° 0 mm 2 mps 735 mmHg 38%
17:00 +9°C° 0 mm 2 mps 735 mmHg 43%
18:00 +7°C° 0 mm 2 mps 735 mmHg 48%
19:00 +7°C° 0 mm 2 mps 735 mmHg 48%
20:00 +7°C° 0 mm 2 mps 735 mmHg 49%
21:00 +6°C° 0 mm 2 mps 735 mmHg 50%
22:00 +6°C° 0 mm 2 mps 735 mmHg 51%
23:00 +5°C° 0 mm 2 mps 735 mmHg 52%

25 January, Monday

Time Temperature Precipitation Wind Pressure Humidity
00:00 +5°C° 0 mm 2 mps 735 mmHg 53%
01:00 +5°C° 0 mm 2 mps 735 mmHg 53%
02:00 +5°C° 0 mm 2 mps 735 mmHg 53%
03:00 +5°C° 0 mm 2 mps 735 mmHg 53%
04:00 +4°C° 0 mm 2 mps 734 mmHg 52%
05:00 +4°C° 0 mm 2 mps 734 mmHg 52%
06:00 +4°C° 0 mm 2 mps 734 mmHg 52%
07:00 +4°C° 0 mm 2 mps 735 mmHg 52%
08:00 +5°C° 0 mm 2 mps 735 mmHg 51%
09:00 +6°C° 0 mm 2 mps 735 mmHg 51%
10:00 +7°C° 0 mm 2 mps 735 mmHg 46%
11:00 +9°C° 0 mm 2 mps 735 mmHg 41%
12:00 +10°C° 0 mm 2 mps 735 mmHg 36%
13:00 +12°C° 0 mm 2 mps 735 mmHg 35%
14:00 +12°C° 0 mm 2 mps 734 mmHg 35%
15:00 +13°C° 0 mm 1 mps 734 mmHg 34%
16:00 +11°C° 0 mm 1 mps 734 mmHg 39%
17:00 +10°C° 0 mm 1 mps 734 mmHg 44%
18:00 +9°C° 0 mm 1 mps 734 mmHg 49%
19:00 +9°C° 0 mm 1 mps 734 mmHg 50%
20:00 +7°C° 0 mm 2 mps 734 mmHg 50%
21:00 +7°C° 0 mm 2 mps 735 mmHg 50%
22:00 +7°C° 0 mm 2 mps 735 mmHg 51%
23:00 +7°C° 0 mm 2 mps 735 mmHg 51%

26 January, Tuesday

Time Temperature Precipitation Wind Pressure Humidity
00:00 +6°C° 0 mm 2 mps 735 mmHg 51%
01:00 +6°C° 0 mm 2 mps 735 mmHg 51%
02:00 +6°C° 0 mm 2 mps 735 mmHg 51%
03:00 +5°C° 0 mm 3 mps 735 mmHg 52%
04:00 +6°C° 0 mm 2 mps 734 mmHg 52%
05:00 +6°C° 0 mm 2 mps 734 mmHg 52%
06:00 +6°C° 0 mm 2 mps 734 mmHg 52%
07:00 +6°C° 0 mm 2 mps 734 mmHg 52%
08:00 +6°C° 0 mm 2 mps 735 mmHg 51%
09:00 +7°C° 0 mm 2 mps 735 mmHg 51%
10:00 +8°C° 0 mm 2 mps 735 mmHg 47%
11:00 +10°C° 0 mm 3 mps 735 mmHg 43%
12:00 +11°C° 0 mm 3 mps 735 mmHg 39%
13:00 +12°C° 0 mm 3 mps 734 mmHg 38%
14:00 +12°C° 0 mm 3 mps 734 mmHg 37%
15:00 +13°C° 0 mm 3 mps 733 mmHg 36%
16:00 +12°C° 0 mm 3 mps 733 mmHg 40%
17:00 +11°C° 0 mm 3 mps 733 mmHg 45%
18:00 +10°C° 0 mm 3 mps 733 mmHg 50%
19:00 +9°C° 0 mm 3 mps 733 mmHg 50%
20:00 +9°C° 0 mm 3 mps 733 mmHg 51%
21:00 +9°C° 0 mm 3 mps 733 mmHg 52%
22:00 +8°C° 0 mm 3 mps 733 mmHg 53%
23:00 +8°C° 0 mm 3 mps 733 mmHg 53%

27 January, Wednesday

Time Temperature Precipitation Wind Pressure Humidity
00:00 +8°C° 0 mm 3 mps 732 mmHg 54%
01:00 +8°C° 0 mm 3 mps 732 mmHg 54%
02:00 +8°C° 0 mm 3 mps 732 mmHg 55%
03:00 +7°C° 0 mm 3 mps 732 mmHg 55%
04:00 +6°C° 0 mm 4 mps 731 mmHg 55%
05:00 +6°C° 0 mm 4 mps 731 mmHg 55%
06:00 +6°C° 0 mm 5 mps 730 mmHg 56%
07:00 +6°C° 0 mm 5 mps 730 mmHg 55%
08:00 +7°C° 0 mm 5 mps 730 mmHg 54%
09:00 +7°C° 0 mm 6 mps 730 mmHg 54%
10:00 +8°C° 0 mm 7 mps 729 mmHg 49%
11:00 +10°C° 0 mm 7 mps 729 mmHg 45%
12:00 +11°C° 0 mm 8 mps 728 mmHg 41%
13:00 +12°C° 0 mm 8 mps 727 mmHg 40%
14:00 +13°C° 0 mm 8 mps 726 mmHg 39%
15:00 +13°C° 0 mm 8 mps 725 mmHg 38%
16:00 +12°C° 0 mm 7 mps 725 mmHg 41%
17:00 +11°C° 0 mm 6 mps 724 mmHg 45%
18:00 +12°C° 0 mm 5 mps 724 mmHg 48%
19:00 +10°C° 0 mm 5 mps 723 mmHg 50%
20:00 +9°C° 0 mm 5 mps 723 mmHg 52%
21:00 +9°C° 0 mm 5 mps 723 mmHg 53%
22:00 +8°C° 0 mm 4 mps 723 mmHg 56%
23:00 +9°C° 0 mm 3 mps 722 mmHg 59%
Show more